| time (UTC) | temp C | wind direction | speed KPH | gust KPH | rain 1hr cm | rain 24hr cm | rain mn cm | humidity % | barometer mb |
| 20260505064226 | 21 | 165 | 0.0 | 0.0 | 0.00 | 0.36 | 0.18 | 64 | 1016.8 |
| 20260505063204 | 21 | 165 | 0.0 | 0.0 | 0.00 | 0.36 | 0.18 | 64 | 1016.8 |
| 20260505061042 | 21 | 132 | 1.6 | 8.0 | 0.00 | 0.36 | 0.18 | 63 | 1016.8 |
| 20260505060032 | 21 | 134 | 3.2 | 9.7 | 0.00 | 0.36 | 0.18 | 62 | 1016.8 |
| 20260505053855 | 21 | 135 | 3.2 | 6.4 | 0.00 | 0.36 | 0.18 | 64 | 1016.5 |
| 20260505052823 | 21 | 146 | 3.2 | 8.0 | 0.00 | 0.36 | 0.18 | 63 | 1016.6 |
| 20260505051756 | 21 | 133 | 3.2 | 8.0 | 0.00 | 0.36 | 0.18 | 63 | 1016.4 |
| 20260505050816 | 21 | 141 | 3.2 | 9.7 | 0.00 | 0.36 | 0.18 | 64 | 1016.5 |
| 20260505041747 | 25 | 300 | 0.0 | 8.0 | 0.00 | 0.36 | 0.18 | 51 | 1016.3 |
| 20260505040750 | 24 | 78 | 1.6 | 6.4 | 0.00 | 0.36 | 0.18 | 52 | 1016.2 |
| 20260505035758 | 23 | 319 | 1.6 | 11.3 | 0.00 | 0.36 | 0.18 | 55 | 1016.1 |
| 20260505034822 | 23 | 337 | 1.6 | 11.3 | 0.00 | 0.36 | 0.18 | 55 | 1016.1 |
| 20260505033809 | 23 | 275 | 3.2 | 11.3 | 0.00 | 0.36 | 0.18 | 56 | 1016.3 |
| 20260505032800 | 23 | 300 | 1.6 | 6.4 | 0.00 | 0.36 | 0.18 | 56 | 1016.2 |
| 20260505031759 | 22 | 262 | 1.6 | 6.4 | 0.00 | 0.36 | 0.18 | 59 | 1016.3 |
| 20260505030743 | 22 | 208 | 3.2 | 9.7 | 0.00 | 0.36 | 0.18 | 58 | 1016.4 |
| 20260505025710 | 22 | 222 | 1.6 | 9.7 | 0.00 | 0.36 | 0.18 | 59 | 1016.7 |
| 20260505024722 | 21 | 309 | 3.2 | 11.3 | 0.00 | 0.36 | 0.18 | 59 | 1016.8 |
| 20260505023708 | 21 | 316 | 3.2 | 11.3 | 0.00 | 0.36 | 0.18 | 60 | 1017.0 |
| 20260505022710 | 21 | 304 | 1.6 | 8.0 | 0.00 | 0.36 | 0.18 | 60 | 1017.1 |
| 20260505021658 | 21 | 314 | 3.2 | 8.0 | 0.00 | 0.36 | 0.18 | 61 | 1017.1 |
| 20260505020637 | 21 | 311 | 1.6 | 6.4 | 0.00 | 0.36 | 0.18 | 61 | 1017.4 |
| 20260505015652 | 21 | 52 | 1.6 | 8.0 | 0.00 | 0.36 | 0.18 | 62 | 1017.4 |
| 20260505014633 | 21 | 316 | 1.6 | 8.0 | 0.00 | 0.36 | 0.18 | 62 | 1017.7 |
| 20260505013614 | 21 | 311 | 3.2 | 9.7 | 0.00 | 0.36 | 0.18 | 65 | 1017.6 |
| 20260505012555 | 21 | 325 | 1.6 | 9.7 | 0.00 | 0.36 | 0.18 | 65 | 1017.8 |
| 20260505011605 | 20 | 250 | 3.2 | 9.7 | 0.00 | 0.36 | 0.18 | 63 | 1017.9 |
| 20260505010558 | 20 | 323 | 1.6 | 9.7 | 0.00 | 0.36 | 0.18 | 61 | 1017.9 |
| 20260505005621 | 20 | 330 | 3.2 | 8.0 | 0.00 | 0.36 | 0.18 | 62 | 1018.1 |
| 20260505004614 | 20 | 263 | 1.6 | 8.0 | 0.00 | 0.36 | 0.18 | 63 | 1018.1 |
| 20260505003545 | 20 | 273 | 1.6 | 6.4 | 0.00 | 0.36 | 0.18 | 64 | 1018.3 |
| 20260505002543 | 20 | 311 | 0.0 | 6.4 | 0.00 | 0.36 | 0.18 | 64 | 1018.5 |
| 20260505001547 | 20 | 260 | 0.0 | 4.8 | 0.00 | 0.36 | 0.18 | 64 | 1018.5 |
| 20260504235450 | 20 | 232 | 3.2 | 9.7 | 0.00 | 0.36 | 0.18 | 64 | 1018.3 |
| 20260504234421 | 20 | 236 | 1.6 | 8.0 | 0.00 | 0.36 | 0.18 | 66 | 1018.4 |
| 20260504233428 | 20 | 238 | 1.6 | 8.0 | 0.00 | 0.36 | 0.18 | 66 | 1018.5 |
| 20260504232416 | 19 | 236 | 1.6 | 8.0 | 0.00 | 0.36 | 0.18 | 70 | 1018.7 |
| 20260504231346 | 18 | 271 | 1.6 | 9.7 | 0.00 | 0.36 | 0.18 | 74 | 1018.5 |
| 20260504230353 | 18 | 229 | 1.6 | 12.9 | 0.00 | 0.36 | 0.18 | 76 | 1018.6 |
| 20260504225344 | 18 | 330 | 1.6 | 12.9 | 0.00 | 0.36 | 0.18 | 77 | 1018.7 |
| 20260504224342 | 18 | 278 | 1.6 | 8.0 | 0.00 | 0.36 | 0.18 | 80 | 1018.6 |
| 20260504222135 | 17 | 193 | 3.2 | 9.7 | 0.00 | 0.36 | 0.18 | 86 | 1018.5 |
| 20260504215945 | 16 | 229 | 1.6 | 11.3 | 0.00 | 0.36 | 0.18 | 89 | 1018.1 |
| 20260504214922 | 16 | 184 | 1.6 | 9.7 | 0.00 | 0.36 | 0.18 | 91 | 1018.0 |
| 20260504213909 | 16 | 212 | 1.6 | 6.4 | 0.00 | 0.36 | 0.18 | 92 | 1017.7 |
| 20260504211741 | 15 | 233 | 0.0 | 4.8 | 0.00 | 0.36 | 0.18 | 94 | 1017.2 |
| 20260504204551 | 16 | 302 | 0.0 | 0.0 | 0.00 | 0.36 | 0.18 | 96 | 1016.8 |
| 20260504203555 | 16 | 302 | 0.0 | 4.8 | 0.00 | 0.36 | 0.18 | 96 | 1016.6 |
| 20260504201358 | 16 | 232 | 1.6 | 8.0 | 0.00 | 0.36 | 0.18 | 96 | 1016.1 |
| 20260504200352 | 16 | 245 | 0.0 | 4.8 | 0.00 | 0.36 | 0.18 | 96 | 1016.0 |
| 20260504195340 | 17 | 255 | 0.0 | 3.2 | 0.00 | 0.33 | 0.15 | 96 | 1015.9 |
| 20260504194317 | 17 | 244 | 0.0 | 0.0 | 0.00 | 0.33 | 0.15 | 97 | 1016.0 |
| 20260504193306 | 17 | 337 | 0.0 | 0.0 | 0.00 | 0.33 | 0.15 | 97 | 1015.7 |
| 20260504192306 | 17 | 337 | 0.0 | 3.2 | 0.00 | 0.33 | 0.15 | 97 | 1015.5 |
| 20260504191259 | 17 | 266 | 0.0 | 1.6 | 0.00 | 0.33 | 0.15 | 97 | 1015.4 |
| 20260504190324 | 17 | 269 | 0.0 | 6.4 | 0.00 | 0.33 | 0.15 | 97 | 1015.3 |
| 20260504185317 | 17 | 283 | 0.0 | 0.0 | 0.00 | 0.33 | 0.15 | 97 | 1015.3 |
| 20260504182037 | 18 | 306 | 0.0 | 3.2 | 0.00 | 0.33 | 0.15 | 97 | 1015.2 |
| 20260504181015 | 18 | 287 | 1.6 | 8.0 | 0.00 | 0.33 | 0.15 | 97 | 1015.1 |
| 20260504175949 | 18 | 335 | 3.2 | 9.7 | 0.00 | 0.33 | 0.15 | 97 | 1015.2 |
| 20260504174915 | 18 | 298 | 3.2 | 11.3 | 0.00 | 0.33 | 0.15 | 96 | 1015.1 |
| 20260504173851 | 18 | 321 | 3.2 | 11.3 | 0.00 | 0.33 | 0.15 | 96 | 1015.0 |
| 20260504172820 | 18 | 309 | 3.2 | 14.5 | 0.00 | 0.33 | 0.15 | 96 | 1014.8 |
| 20260504171824 | 18 | 333 | 4.8 | 14.5 | 0.00 | 0.33 | 0.15 | 96 | 1015.1 |
| 20260504170839 | 18 | 328 | 4.8 | 11.3 | 0.00 | 0.33 | 0.15 | 96 | 1015.2 |
| 20260504150251 | 18 | 310 | 1.6 | 6.4 | 0.00 | 0.18 | 0.00 | 96 | 1015.0 |
| 20260504140953 | 18 | 0 | 1.6 | 6.4 | 0.00 | 0.18 | 0.00 | 96 | 1014.5 |
| 20260504110546 | 19 | 319 | 0.0 | 3.2 | 0.00 | 0.10 | 0.10 | 91 | 1015.7 |
| 20260504081607 | 22 | 300 | 0.0 | 6.4 | 0.00 | 0.00 | 0.00 | 74 | 1014.8 |
| 20260504080600 | 23 | 312 | 0.0 | 4.8 | 0.00 | 0.00 | 0.00 | 73 | 1014.8 |